EW4074 Weather Reports


time (UTC)temp
F
wind
direction
speed
knots
gust
knots
rain 1hr
in
rain 24hr
in
rain mn
in
humidity
%
barometer
mb
20260504002214 51 250 0.0 0.0 0.00 0.00 0.00 58 1042.2
20260504001927 51 250 0.0 0.0 0.00 0.00 0.00 58 1042.2
20260504001206 52 250 0.0 0.0 0.00 0.00 0.00 53 1042.2
20260504000920 53 250 0.0 1.7 0.00 0.00 0.00 53 1042.2
20260504000154 54 250 0.0 1.7 0.00 0.00 0.00 50 1042.1
20260503235648 55 241 0.0 0.9 0.00 0.00 0.00 50 1042.1
20260503235142 56 241 0.0 0.9 0.00 0.00 0.00 48 1042.1
20260503234636 56 240 0.0 0.9 0.00 0.00 0.00 45 1041.8
20260503234212 57 271 0.0 0.9 0.00 0.00 0.00 43 1041.8
20260503233114 58 229 0.0 4.3 0.00 0.00 0.00 42 1041.8
20260503232613 58 275 0.9 4.3 0.00 0.00 0.00 42 1041.8
20260503232106 59 94 0.9 3.5 0.00 0.00 0.00 42 1041.7
20260503231600 60 277 0.9 5.2 0.00 0.00 0.00 40 1041.7
20260503231312 60 252 1.7 8.7 0.00 0.00 0.00 40 1041.7
20260503230548 60 227 1.7 8.7 0.00 0.00 0.00 39 1041.8
20260503230042 60 161 1.7 5.2 0.00 0.00 0.00 40 1041.8
20260503225532 61 232 1.7 5.2 0.00 0.00 0.00 39 1041.8
20260503225030 61 262 1.7 5.2 0.00 0.00 0.00 37 1041.6
20260503224744 62 240 0.9 5.2 0.00 0.00 0.00 37 1041.6
20260503224237 62 316 0.9 4.3 0.00 0.00 0.00 38 1041.6
20260503223555 62 116 1.7 4.3 0.00 0.00 0.00 37 1041.7
20260503222501 62 292 1.7 6.1 0.00 0.00 0.00 36 1041.7
20260503221954 62 270 2.6 9.6 0.00 0.00 0.00 37 1041.8
20260503221711 62 217 3.5 9.6 0.00 0.00 0.00 37 1041.8
20260503220942 62 274 2.6 7.8 0.00 0.00 0.00 36 1041.8
20260503220436 62 205 2.6 8.7 0.00 0.00 0.00 38 1041.9
20260503215931 62 279 2.6 8.7 0.00 0.00 0.00 37 1041.9
20260503215421 62 290 3.5 9.6 0.00 0.00 0.00 37 1041.9
20260503214918 62 251 2.6 9.6 0.00 0.00 0.00 37 1041.9
20260503214412 62 335 2.6 6.1 0.00 0.00 0.00 36 1041.9
20260503214132 62 267 2.6 7.0 0.00 0.00 0.00 36 1041.9
20260503213400 62 234 3.5 10.4 0.00 0.00 0.00 38 1041.8
20260503212855 62 260 3.5 10.4 0.00 0.00 0.00 36 1041.8
20260503212348 62 197 2.6 11.3 0.00 0.00 0.00 36 1041.8
20260503211842 62 238 3.5 10.4 0.00 0.00 0.00 38 1041.8
20260503211341 62 307 3.5 11.3 0.00 0.00 0.00 37 1041.8
20260503210841 62 236 3.5 11.3 0.00 0.00 0.00 37 1041.8
20260503210341 62 245 3.5 11.3 0.00 0.00 0.00 38 1041.8
20260503205841 62 122 3.5 10.4 0.00 0.00 0.00 39 1041.8
20260503205341 62 205 2.6 7.8 0.00 0.00 0.00 37 1041.8
20260503204840 62 267 3.5 11.3 0.00 0.00 0.00 38 1041.8
20260503204344 62 84 3.5 11.3 0.00 0.00 0.00 38 1041.8
20260503203844 62 239 2.6 8.7 0.00 0.00 0.00 37 1041.8
20260503203338 62 224 2.6 8.7 0.00 0.00 0.00 41 1042.0
20260503203046 62 223 2.6 5.2 0.00 0.00 0.00 38 1042.0
20260503202314 62 71 2.6 9.6 0.00 0.00 0.00 38 1042.0
20260503201807 62 166 1.7 9.6 0.00 0.00 0.00 38 1042.1
20260503201254 62 261 2.6 7.0 0.00 0.00 0.00 38 1042.1
20260503200753 62 39 3.5 9.6 0.00 0.00 0.00 39 1042.1
20260503200247 62 65 2.6 9.6 0.00 0.00 0.00 38 1042.3
20260503195742 62 218 1.7 7.8 0.00 0.00 0.00 40 1042.3
20260503195236 61 108 1.7 7.8 0.00 0.00 0.00 39 1042.3
20260503194726 61 49 2.6 7.0 0.00 0.00 0.00 38 1042.7
20260503194224 62 271 3.5 8.7 0.00 0.00 0.00 39 1042.7
20260503193717 62 348 2.6 8.7 0.00 0.00 0.00 38 1042.7
20260503193211 61 238 2.6 7.8 0.00 0.00 0.00 39 1042.8
20260503192705 61 224 3.5 11.3 0.00 0.00 0.00 38 1042.8
20260503192159 61 248 3.5 11.3 0.00 0.00 0.00 38 1042.8
20260503191654 61 236 2.6 11.3 0.00 0.00 0.00 39 1042.9
20260503191142 60 79 2.6 11.3 0.00 0.00 0.00 38 1042.9
20260503190641 60 192 1.7 7.8 0.00 0.00 0.00 37 1042.9
20260503190135 60 81 3.5 8.7 0.00 0.00 0.00 36 1043.0
20260503185629 60 281 3.5 8.7 0.00 0.00 0.00 38 1043.0
20260503185125 60 298 3.5 11.3 0.00 0.00 0.00 42 1043.3
20260503184618 60 304 4.3 11.3 0.00 0.00 0.00 40 1043.3
20260503184328 60 278 3.5 10.4 0.00 0.00 0.00 42 1043.3
20260503183605 60 247 2.6 11.3 0.00 0.00 0.00 38 1043.4
20260503183059 59 221 3.5 11.3 0.00 0.00 0.00 40 1043.4
20260503182549 59 229 3.5 8.7 0.00 0.00 0.00 40 1043.4
20260503182311 59 126 3.5 8.7 0.00 0.00 0.00 42 1043.5
20260503181541 58 250 2.6 7.8 0.00 0.00 0.00 43 1043.5
20260503181035 58 232 2.6 7.0 0.00 0.00 0.00 42 1043.5
20260503180530 58 206 3.5 11.3 0.00 0.00 0.00 42 1043.5
20260503180020 58 281 3.5 11.3 0.00 0.00 0.00 43 1043.5
20260503175517 58 290 2.6 9.6 0.00 0.00 0.00 43 1043.5
20260503175012 58 247 3.5 10.4 0.00 0.00 0.00 42 1043.9
20260503174506 58 219 3.5 11.3 0.00 0.00 0.00 45 1043.9
20260503174000 58 223 3.5 11.3 0.00 0.00 0.00 45 1043.9
20260503173453 58 225 2.6 7.0 0.00 0.00 0.00 45 1043.8
20260503172948 57 296 2.6 7.8 0.00 0.00 0.00 43 1043.8
20260503172653 57 211 3.5 7.8 0.00 0.00 0.00 45 1043.8
20260503171936 57 252 3.5 8.7 0.00 0.00 0.00 42 1043.9
20260503171430 56 227 3.5 13.0 0.00 0.00 0.00 45 1043.9
20260503170924 57 260 2.6 7.0 0.00 0.00 0.00 45 1043.9
20260503170418 57 149 2.6 10.4 0.00 0.00 0.00 46 1044.4
20260503170130 56 89 3.5 10.4 0.00 0.00 0.00 44 1044.4
20260503150730 53 211 2.6 7.0 0.00 0.00 0.00 53 1045.2
20260503150227 52 267 2.6 9.6 0.00 0.00 0.00 54 1045.1
20260503140140 49 228 1.7 9.6 0.00 0.00 0.00 60 1045.4
20260503131039 47 74 2.6 7.8 0.00 0.00 0.00 65 1045.5
20260503130624 47 109 3.5 9.6 0.00 0.00 0.00 65 1045.5
20260503110810 30 306 0.0 0.0 0.00 0.00 0.00 96 1044.6
20260503110309 30 306 0.0 0.0 0.00 0.00 0.00 96 1044.4
20260503100158 31 306 0.0 0.0 0.00 0.00 0.00 95 1043.6
20260503081546 35 306 0.0 0.0 0.00 0.00 0.00 91 1043.1
20260503081043 35 306 0.0 0.0 0.00 0.00 0.00 91 1043.1
20260503080801 35 306 0.0 0.0 0.00 0.00 0.00 91 1042.9
20260503072749 34 306 0.0 0.0 0.00 0.00 0.00 93 1042.8
20260503072020 33 306 0.0 0.0 0.00 0.00 0.00 93 1042.8
20260503071521 33 306 0.0 0.0 0.00 0.00 0.00 93 1042.8
20260503071021 33 306 0.0 0.0 0.00 0.00 0.00 93 1042.8
20260503070521 33 306 0.0 0.0 0.00 0.00 0.00 93 1042.5
20260503054938 35 306 0.0 0.0 0.00 0.00 0.00 86 1042.7
20260503054427 35 306 0.0 0.0 0.00 0.00 0.00 85 1042.7
20260503053922 36 306 0.0 0.0 0.00 0.00 0.00 85 1042.7
20260503053416 37 306 0.0 0.0 0.00 0.00 0.00 85 1042.7
20260503052910 37 306 0.0 0.0 0.00 0.00 0.00 84 1042.7
20260503052403 38 306 0.0 0.0 0.00 0.00 0.00 84 1042.7
20260503051850 38 306 0.0 0.0 0.00 0.00 0.00 83 1042.8
20260503051352 38 306 0.0 0.0 0.00 0.00 0.00 83 1042.8
20260503050846 38 306 0.0 0.0 0.00 0.00 0.00 82 1042.8
20260503050339 38 306 0.0 0.0 0.00 0.00 0.00 82 1042.8
20260503045547 38 222 0.0 0.0 0.00 0.00 0.00 82 1042.8
20260503044822 38 222 0.0 0.0 0.00 0.00 0.00 81 1042.8
20260503044311 39 222 0.0 0.0 0.00 0.00 0.00 81 1042.8
20260503043810 39 222 0.0 0.0 0.00 0.00 0.00 81 1042.8
20260503043522 39 222 0.0 0.0 0.00 0.00 0.00 79 1042.8
20260503042758 39 222 0.0 0.0 0.00 0.00 0.00 78 1042.8
20260503042252 40 222 0.0 0.0 0.00 0.00 0.00 78 1042.8
20260503041746 40 222 0.0 0.0 0.00 0.00 0.00 77 1042.7
20260503041240 41 222 0.0 2.6 0.00 0.00 0.00 77 1042.7
20260503040726 41 213 0.0 2.6 0.00 0.00 0.00 75 1042.7
20260503040452 42 232 0.0 0.9 0.00 0.00 0.00 74 1042.6
20260503035941 42 233 0.0 0.9 0.00 0.00 0.00 73 1042.6
20260503035215 42 246 0.0 2.6 0.00 0.00 0.00 72 1042.6
20260503034709 43 275 0.0 2.6 0.00 0.00 0.00 72 1042.4
20260503034203 43 248 0.0 2.6 0.00 0.00 0.00 71 1042.4
20260503033657 43 247 0.9 2.6 0.00 0.00 0.00 70 1042.4
20260503033409 43 74 0.9 7.0 0.00 0.00 0.00 70 1042.3
20260503033123 44 246 0.9 7.0 0.00 0.00 0.00 70 1042.3
20260503032140 44 34 0.9 3.5 0.00 0.00 0.00 69 1042.3
20260503031633 44 56 0.9 4.3 0.00 0.00 0.00 70 1042.4
20260503031348 44 325 0.9 4.3 0.00 0.00 0.00 70 1042.4
20260503030622 44 278 0.0 3.5 0.00 0.00 0.00 70 1042.5
20260503030115 44 198 0.9 6.1 0.00 0.00 0.00 71 1042.5
20260503025605 44 58 0.9 6.1 0.00 0.00 0.00 71 1042.5
20260503025104 44 207 0.0 3.5 0.00 0.00 0.00 72 1042.8
20260503024558 44 152 0.0 0.9 0.00 0.00 0.00 71 1042.8
20260503024052 44 152 0.0 2.6 0.00 0.00 0.00 69 1042.8
20260503023546 45 236 0.0 4.3 0.00 0.00 0.00 68 1042.7
20260503023040 45 267 0.0 4.3 0.00 0.00 0.00 68 1042.7
20260503022534 45 178 0.9 6.1 0.00 0.00 0.00 67 1042.7
20260503022023 46 173 0.9 6.1 0.00 0.00 0.00 66 1042.7
20260503021521 46 88 0.9 2.6 0.00 0.00 0.00 66 1042.7
20260503021015 46 240 0.9 3.5 0.00 0.00 0.00 66 1042.7
20260503020510 46 253 1.7 7.8 0.00 0.00 0.00 65 1042.3
20260503020004 46 227 0.9 7.8 0.00 0.00 0.00 66 1042.3
20260503015458 46 348 0.9 3.5 0.00 0.00 0.00 66 1042.3
20260503014952 47 239 0.9 5.2 0.00 0.00 0.00 66 1042.2
20260503014442 47 103 0.9 5.2 0.00 0.00 0.00 66 1042.2
20260503014205 47 78 0.9 4.3 0.00 0.00 0.00 65 1042.2
20260503013434 47 13 0.9 4.3 0.00 0.00 0.00 65 1041.9
20260503012927 47 287 0.9 4.3 0.00 0.00 0.00 64 1041.9
20260503012903 48 151 0.9 5.2 0.00 0.00 0.00 64 1041.9
20260503011915 48 244 0.9 5.2 0.00 0.00 0.00 63 1041.7
20260503011631 48 40 0.9 3.5 0.00 0.00 0.00 63 1041.7
20260503010859 48 42 0.9 3.5 0.00 0.00 0.00 62 1041.7
20260503010357 48 81 0.0 3.5 0.00 0.00 0.00 63 1041.5
20260503005852 49 342 0.9 3.5 0.00 0.00 0.00 62 1041.5
20260503005347 49 101 0.9 4.3 0.00 0.00 0.00 61 1041.5
20260503004839 49 52 0.9 5.2 0.00 0.00 0.00 61 1041.3
20260503004334 49 248 0.9 5.2 0.00 0.00 0.00 61 1041.3
20260503004051 49 271 0.0 2.6 0.00 0.00 0.00 61 1041.3
20260503003315 50 134 0.9 2.6 0.00 0.00 0.00 59 1041.2
20260503002816 50 11 0.9 3.5 0.00 0.00 0.00 59 1041.2